[[{"header":{"parameterUnit":"m.s-1","parameterCategory":1,"la1":30.2991,"la2":30.254,"lo1":-89.0895,"lo2":-89.0444,"dy":0.0017,"dx":0.0017,"nx":28,"ny":28,"refTime":"2023-08-24T09:00:00:Z","depth":0,"parameterNumber":2,"parameterNumberName":"U-component_of_WINDS"},"data":[0,0,0,0,0,0,0,0,0,0,0,0,0,0,0,0,0,0,0,0,0,0,0,0,0,0,0,0,0,0,0,0,0,0,0,0,0,0,0,0,0,0,0,0,0,0,0,0,0,0,0,0,0,0,0,0,0,0,0.3207,0.3207,0,0.3222,0.3222,0.3222,0.3229,0.3229,0.3229,0.3229,0.3244,0.3244,0.3245,0,0,0,0,0,0,0,0,0,0,0,0,0,0.3183,0.3184,0.3207,0.3207,0.3207,0.3222,0.3222,0.3222,0.3229,0.3229,0.3229,0.3229,0.3244,0.3244,0.3245,0,0,0,0,0,0,0,0,0,0,0,0,0,0.3195,0.3184,0.3207,0.3212,0.3213,0.3222,0.3222,0.3222,0.3229,0.3229,0.3229,0.3229,0.3244,0.3244,0.3245,0.3249,0,0,0.3247,0.3247,0,0,0,0,0,0,0,0,0.3195,0.3196,0.3211,0.3212,0.3213,0.3223,0.3219,0.3231,0.3229,0.3223,0.3229,0.3229,0.3237,0.3238,0.3241,0.325,0.3251,0.3247,0.3247,0.3248,0.3248,0,0,0,0,0,0,0,0.3194,0.3196,0.3213,0.3211,0.3212,0.3214,0.3215,0.3222,0.323,0.3223,0.3224,0.3225,0.3238,0.3241,0.3242,0.3251,0.3247,0.3248,0.3248,0.3248,0.3263,0.3263,0,0,0,0,0,0,0.3192,0.3195,0.3212,0.3213,0.3203,0.3214,0.3216,0.322,0.323,0.3231,0.3225,0.3226,0.324,0.3241,0.3242,0.3247,0.3248,0.3248,0.3249,0.3263,0.3263,0.3263,0,0,0,0,0,0,0.3192,0.3194,0.3212,0.3204,0.3207,0.3215,0.3219,0.322,0.3223,0.3232,0.3233,0.3227,0.324,0.3241,0.3247,0.3248,0.3249,0.3249,0.3263,0.3263,0.3263,0.3258,0,0,0,0,0,0,0.3191,0.3194,0.3196,0.3204,0.3207,0.3217,0.3219,0.3221,0.3224,0.3225,0.3233,0.3235,0.324,0.3246,0.3248,0.3249,0.325,0.3263,0.3263,0.3263,0.3258,0.3257,0.3257,0,0,0,0,0,0.319,0.3194,0.3196,0.3198,0.321,0.3217,0.3218,0.3224,0.3224,0.3226,0.3231,0.3235,0.3247,0.3247,0.3249,0.325,0.3263,0.3263,0.3263,0.3258,0.3258,0.3257,0,0,0,0,0,0,0.3185,0.3195,0.3197,0.3204,0.3209,0.3218,0.322,0.3223,0.3229,0.3229,0.3236,0.3237,0.3243,0.3247,0.3246,0.3254,0.3255,0.3256,0.3251,0.3251,0.325,0.3249,0.325,0,0,0,0,0,0.3185,0.319,0.3198,0.3203,0.3206,0.3212,0.3216,0.3219,0.3225,0.3228,0.3234,0.3239,0.3244,0.3248,0.3253,0.3258,0.326,0.326,0.326,0.3259,0.326,0.3262,0.3261,0.3263,0.3263,0.3263,0,0,0.3185,0.319,0.3193,0.3202,0.3207,0.3212,0.3215,0.322,0.3223,0.3229,0.3234,0.3239,0.3245,0.3251,0.3253,0.3254,0.3259,0.3259,0.3259,0.3259,0.3262,0.3261,0.3261,0.3263,0.3263,0.3263,0,0,0.3186,0.3191,0.3195,0.32,0.3206,0.3211,0.3212,0.322,0.3222,0.3228,0.3232,0.3236,0.3245,0.325,0.3253,0.3254,0.3257,0.3256,0.3254,0.3256,0.3256,0.3256,0.3256,0.3256,0.3256,0.3256,0.3256,0,0.3184,0.3192,0.3197,0.3202,0.3205,0.321,0.3214,0.3218,0.3226,0.3228,0.3229,0.324,0.3245,0.3251,0.3251,0.3254,0.3254,0.3255,0.3256,0.3256,0.3256,0.3255,0.3255,0.3256,0.3256,0.3256,0.3256,0,0.3189,0.3194,0.3196,0.3204,0.3207,0.3212,0.3217,0.322,0.3223,0.3227,0.3232,0.3238,0.3244,0.3246,0.3249,0.3252,0.3252,0.3254,0.3256,0.3255,0.3255,0.3255,0.3256,0.3256,0.3256,0.3256,0,0,0.3189,0.3198,0.3199,0.3201,0.3209,0.3213,0.3217,0.3222,0.3224,0.323,0.3233,0.324,0.3241,0.3245,0.3249,0.325,0.325,0.3252,0.3252,0.3251,0.3252,0.325,0.325,0.3252,0.3252,0.3252,0.3251,0,0.319,0.3198,0.3202,0.3208,0.3212,0.3216,0.3219,0.3223,0.3227,0.3231,0.3235,0.3239,0.3241,0.3243,0.3245,0.325,0.325,0.325,0.3254,0.3254,0.3252,0.325,0.3249,0.3248,0.3252,0.3252,0.3252,0,0.3194,0.3198,0.3204,0.321,0.3212,0.3215,0.3219,0.3223,0.3228,0.323,0.3234,0.3237,0.3241,0.3242,0.3247,0.3247,0.3249,0.3251,0.3251,0.3252,0.3253,0.325,0.3248,0.3248,0.3252,0.3252,0.3252,0,0.3192,0.32,0.3204,0.3206,0.3213,0.3215,0.3218,0.3223,0.3225,0.323,0.3231,0.3236,0.3239,0.3242,0.3246,0.3247,0.325,0.3252,0.3252,0.3252,0.3253,0.3252,0.325,0.3254,0.3254,0.3254,0.3254,0,0.3194,0.3197,0.3203,0.3205,0.3208,0.3213,0.3216,0.322,0.3224,0.3226,0.323,0.3233,0.3239,0.3242,0.3245,0.3248,0.3249,0.3251,0.3252,0.325,0.325,0.3252,0.3252,0.3254,0.3254,0.3254,0.3254,0,0.3192,0.3196,0.3201,0.3207,0.3208,0.321,0.3215,0.3218,0.3221,0.3224,0.3225,0.3231,0.3234,0.3239,0.3244,0.3246,0.3249,0.325,0.3247,0.3248,0.3247,0.3247,0.3246,0.3245,0.325,0.325,0.325,0,0.3193,0.3195,0.3201,0.3203,0.3206,0.3209,0.3211,0.3216,0.3218,0.3223,0.3225,0.3229,0.3232,0.3238,0.3242,0.3246,0.3247,0.3246,0.3248,0.3246,0.3246,0.3246,0.3246,0.3246,0.3246,0.3246,0.3246,0,0.3193,0.3195,0.3198,0.3202,0.3205,0.3208,0.3211,0.3213,0.3218,0.322,0.3224,0.3226,0.3231,0.3235,0.3239,0.3242,0.3244,0.3245,0.3245,0.3244,0.3241,0.3242,0.3246,0.3245,0.3245,0.3245,0.3245,0.3245,0.3192,0.3194,0.3198,0.3202,0.3204,0.3207,0.3209,0.3212,0.3215,0.322,0.3222,0.3225,0.3229,0.3235,0.3237,0.324,0.3241,0.3241,0.3241,0.3241,0.324,0.3241,0.3241,0.3241,0.3241,0.3241,0.3241,0,0.3192,0.3195,0.3198,0.3202,0.3204,0.3206,0.321,0.3212,0.3214,0.3218,0.3221,0.3224,0.3227,0.3231,0.3235,0.3236,0.3237,0.3236,0.3236,0.3237,0.3239,0.3239,0.3235,0.3235,0.3235,0.3235,0.3235,0.3235,0.3193,0.3195,0.3197,0.3201,0.3204,0.3207,0.3209,0.3211,0.3213,0.3217,0.322,0.3222,0.3225,0.3229,0.3231,0.3233,0.3233,0.3232,0.3234,0.3236,0.3237,0.3237,0.3236,0.3233,0.3233,0.3231,0.3231,0.3231]},{"header":{"parameterUnit":"m.s-1","parameterCategory":1,"la1":30.2991,"la2":30.254,"lo1":-89.0895,"lo2":-89.0444,"dy":0.0017,"dx":0.0017,"nx":28,"ny":28,"refTime":"2023-08-24T09:00:00:Z","depth":0,"parameterNumber":3,"parameterNumberName":"V-component_of_WINDS"},"data":[0,0,0,0,0,0,0,0,0,0,0,0,0,0,0,0,0,0,0,0,0,0,0,0,0,0,0,0,0,0,0,0,0,0,0,0,0,0,0,0,0,0,0,0,0,0,0,0,0,0,0,0,0,0,0,0,0,0,-1.1451,-1.1451,0,-1.1464,-1.1464,-1.1464,-1.1461,-1.1461,-1.1461,-1.1461,-1.1475,-1.1476,-1.1476,0,0,0,0,0,0,0,0,0,0,0,0,0,-1.1427,-1.1427,-1.1451,-1.1451,-1.1451,-1.1464,-1.1464,-1.1464,-1.1462,-1.1461,-1.1461,-1.1461,-1.1475,-1.1476,-1.1476,0,0,0,0,0,0,0,0,0,0,0,0,0,-1.1438,-1.1427,-1.1451,-1.1452,-1.1452,-1.1464,-1.1464,-1.1464,-1.1462,-1.1461,-1.1461,-1.1461,-1.1475,-1.1476,-1.1476,-1.1489,0,0,-1.1479,-1.148,0,0,0,0,0,0,0,0,-1.1438,-1.1439,-1.1451,-1.1452,-1.1452,-1.1461,-1.1461,-1.1472,-1.1462,-1.1458,-1.1461,-1.146,-1.1471,-1.1472,-1.1475,-1.149,-1.149,-1.1479,-1.148,-1.148,-1.1481,0,0,0,0,0,0,0,-1.1437,-1.1439,-1.1456,-1.1452,-1.1452,-1.1452,-1.1453,-1.1463,-1.1466,-1.1458,-1.1458,-1.146,-1.1471,-1.1474,-1.1475,-1.1491,-1.1479,-1.148,-1.1481,-1.1481,-1.1517,-1.1518,0,0,0,0,0,0,-1.1436,-1.1438,-1.1456,-1.1456,-1.1444,-1.1453,-1.1454,-1.1458,-1.1466,-1.1467,-1.146,-1.1459,-1.1473,-1.1474,-1.1476,-1.1492,-1.148,-1.1481,-1.1482,-1.1517,-1.1517,-1.1518,0,0,0,0,0,0,-1.1435,-1.1437,-1.1455,-1.1447,-1.1449,-1.1453,-1.1458,-1.1459,-1.1462,-1.1467,-1.1468,-1.1463,-1.1473,-1.1475,-1.1486,-1.1492,-1.1481,-1.1482,-1.1516,-1.1517,-1.1518,-1.1523,0,0,0,0,0,0,-1.1434,-1.1437,-1.1441,-1.1447,-1.145,-1.1464,-1.1458,-1.1459,-1.1463,-1.1463,-1.147,-1.1471,-1.1473,-1.1485,-1.1487,-1.1493,-1.1483,-1.1516,-1.1517,-1.1517,-1.1522,-1.1523,-1.1525,0,0,0,0,0,-1.1434,-1.1442,-1.1441,-1.1444,-1.1455,-1.1465,-1.1466,-1.1467,-1.1464,-1.1469,-1.1472,-1.1471,-1.1491,-1.1486,-1.1488,-1.1495,-1.1515,-1.1516,-1.1517,-1.1521,-1.1523,-1.1525,0,0,0,0,0,0,-1.1437,-1.1443,-1.1442,-1.1453,-1.1458,-1.1464,-1.147,-1.1469,-1.1476,-1.1475,-1.1477,-1.1479,-1.149,-1.1494,-1.1488,-1.1508,-1.1503,-1.1504,-1.1505,-1.1507,-1.1508,-1.1507,-1.1484,0,0,0,0,0,-1.1439,-1.1445,-1.1451,-1.146,-1.1462,-1.1466,-1.147,-1.1471,-1.1476,-1.1479,-1.1483,-1.1489,-1.1497,-1.1502,-1.151,-1.1523,-1.1525,-1.1529,-1.153,-1.1531,-1.1532,-1.154,-1.1542,-1.1521,-1.1521,-1.1521,0,0,-1.1443,-1.1447,-1.1451,-1.1461,-1.1465,-1.1472,-1.1468,-1.1476,-1.1481,-1.148,-1.1491,-1.1495,-1.1502,-1.1514,-1.152,-1.1517,-1.1539,-1.1532,-1.1533,-1.1534,-1.1541,-1.1543,-1.1545,-1.1522,-1.1522,-1.1521,0,0,-1.1454,-1.1458,-1.1466,-1.1471,-1.1477,-1.1479,-1.1481,-1.1488,-1.149,-1.1501,-1.15,-1.1508,-1.1521,-1.1526,-1.1531,-1.1546,-1.1545,-1.1548,-1.1555,-1.1563,-1.1564,-1.1566,-1.1571,-1.1573,-1.1549,-1.1549,-1.1549,0,-1.1459,-1.1469,-1.147,-1.1479,-1.1483,-1.1482,-1.1491,-1.1496,-1.1504,-1.1508,-1.1505,-1.1522,-1.1527,-1.1541,-1.1545,-1.1548,-1.1551,-1.1547,-1.1564,-1.1565,-1.1567,-1.1572,-1.1574,-1.155,-1.155,-1.155,-1.155,0,-1.1475,-1.1482,-1.1488,-1.1496,-1.1501,-1.151,-1.1513,-1.1519,-1.1519,-1.1522,-1.1534,-1.154,-1.1549,-1.1553,-1.1553,-1.1567,-1.1565,-1.1563,-1.1558,-1.1569,-1.1574,-1.1576,-1.155,-1.155,-1.155,-1.155,0,0,-1.1487,-1.1497,-1.1499,-1.1503,-1.1511,-1.1517,-1.1526,-1.1534,-1.1539,-1.1546,-1.1554,-1.1566,-1.1564,-1.1569,-1.1571,-1.1578,-1.1589,-1.1575,-1.1575,-1.1577,-1.1606,-1.1607,-1.1609,-1.1589,-1.159,-1.159,-1.1605,0,-1.1499,-1.1514,-1.1516,-1.153,-1.1537,-1.1537,-1.1545,-1.1551,-1.1555,-1.1562,-1.1566,-1.1575,-1.1572,-1.1575,-1.1582,-1.1586,-1.1595,-1.1586,-1.1597,-1.1598,-1.1595,-1.1612,-1.1613,-1.1627,-1.1607,-1.1607,-1.1608,0,-1.1515,-1.1521,-1.1536,-1.1543,-1.1546,-1.1553,-1.1562,-1.1569,-1.1576,-1.1578,-1.1585,-1.1586,-1.1596,-1.1591,-1.1606,-1.1599,-1.1604,-1.1608,-1.1608,-1.1609,-1.1603,-1.1613,-1.1631,-1.1633,-1.1611,-1.161,-1.161,0,-1.1522,-1.1535,-1.1546,-1.1549,-1.1558,-1.1563,-1.1567,-1.1574,-1.158,-1.1587,-1.1591,-1.16,-1.1605,-1.1613,-1.1617,-1.1613,-1.1632,-1.1627,-1.1634,-1.1634,-1.1637,-1.1637,-1.1657,-1.1641,-1.1641,-1.1641,-1.1641,0,-1.1535,-1.1544,-1.1549,-1.1556,-1.1566,-1.1569,-1.1579,-1.1583,-1.159,-1.1598,-1.1599,-1.1606,-1.1611,-1.162,-1.1623,-1.1635,-1.1637,-1.164,-1.1641,-1.1639,-1.1639,-1.1643,-1.1642,-1.1642,-1.1642,-1.1641,-1.1641,0,-1.1545,-1.1549,-1.156,-1.1568,-1.157,-1.1578,-1.1585,-1.1592,-1.1595,-1.1605,-1.1608,-1.1614,-1.1624,-1.1629,-1.1642,-1.1644,-1.1658,-1.1658,-1.1655,-1.1656,-1.1663,-1.1662,-1.1685,-1.1688,-1.1671,-1.1671,-1.1671,0,-1.1553,-1.156,-1.1568,-1.1573,-1.1578,-1.1586,-1.1591,-1.1595,-1.1601,-1.1611,-1.1617,-1.1627,-1.1635,-1.1652,-1.1658,-1.1668,-1.1668,-1.1676,-1.167,-1.1669,-1.1668,-1.1668,-1.1669,-1.1676,-1.1677,-1.1677,-1.1677,0,-1.1566,-1.1568,-1.1576,-1.1584,-1.1591,-1.1598,-1.1605,-1.1609,-1.1615,-1.1621,-1.1632,-1.1638,-1.1651,-1.1662,-1.1672,-1.1678,-1.1678,-1.1679,-1.1681,-1.168,-1.1678,-1.1679,-1.1658,-1.1678,-1.1678,-1.1678,-1.1678,-1.1678,-1.1576,-1.1582,-1.1589,-1.1598,-1.1604,-1.161,-1.1617,-1.1622,-1.163,-1.1641,-1.1643,-1.1654,-1.1663,-1.1677,-1.1683,-1.1693,-1.1691,-1.1694,-1.1695,-1.1696,-1.1696,-1.1677,-1.1695,-1.1695,-1.1694,-1.1694,-1.1694,0,-1.1589,-1.1594,-1.1602,-1.1612,-1.1619,-1.1619,-1.1627,-1.1633,-1.1643,-1.1651,-1.1659,-1.1671,-1.1682,-1.1689,-1.17,-1.1706,-1.1707,-1.1709,-1.1708,-1.171,-1.1697,-1.1694,-1.1708,-1.1708,-1.1708,-1.1708,-1.1708,-1.1708,-1.1597,-1.1608,-1.161,-1.1625,-1.163,-1.164,-1.1645,-1.1652,-1.1658,-1.1671,-1.168,-1.1685,-1.1693,-1.1704,-1.1714,-1.1716,-1.172,-1.1722,-1.1725,-1.1712,-1.1711,-1.1709,-1.1706,-1.1723,-1.1723,-1.1737,-1.1737,-1.1737]}]]